Location: Newark
(33.6439°N, 114.9881°W)
Time: 16:48:29
(UTC+00:00)

Courier 1B Rocket - All Passes

Search period start: 19 July 2019 00:00
Search period end: 29 July 2019 00:00
Orbit: 920 x 1202 km, 28.2° (Epoch: 19 July)

Date Brightness Start Highest point End Pass type
(mag) Time Alt. Az. Time Alt. Az. Time Alt. Az.
19 Jul - 00:20:09 10° SW 00:25:52 34° SSE 00:31:55 10° E daylight
19 Jul - 02:12:27 10° WSW 02:18:56 54° S 02:25:54 10° E daylight
19 Jul - 04:05:33 10° W 04:12:16 51° S 04:19:28 10° ESE visible
19 Jul - 05:59:21 10° W 06:05:30 30° SSW 06:11:57 10° SE visible
19 Jul - 07:57:06 10° SW 07:58:29 11° SSW 07:59:53 10° SSW night (unlit)
19 Jul - 23:19:56 10° SSW 23:25:03 26° SSE 23:30:21 10° ESE daylight
20 Jul - 01:11:43 10° WSW 01:17:56 49° S 01:24:36 10° E daylight
20 Jul - 03:04:37 10° W 03:11:12 55° S 03:18:16 10° ESE visible
20 Jul - 04:58:04 10° W 05:04:28 37° SSW 05:11:14 10° SE visible
20 Jul - 06:53:19 10° WSW 06:57:30 16° SSW 07:01:48 10° S visible
20 Jul - 22:20:06 10° SSW 22:24:17 19° SSE 22:28:32 10° ESE daylight
21 Jul - 00:11:06 10° SW 00:17:01 42° SSE 00:23:17 10° E daylight
21 Jul - 02:03:45 10° WSW 02:10:09 56° S 02:17:02 10° ESE daylight
21 Jul - 03:56:59 10° W 04:03:25 43° SSW 04:10:18 10° SE visible
21 Jul - 05:51:15 10° WSW 05:56:31 22° SSW 06:01:59 10° SSE visible
21 Jul - 21:21:07 10° S 21:23:33 12° SSE 21:26:00 10° SE daylight
21 Jul - 23:10:37 10° SW 23:16:10 33° SSE 23:21:55 10° E daylight
22 Jul - 01:02:57 10° WSW 01:09:09 53° S 01:15:47 10° E daylight
22 Jul - 02:56:00 10° W 03:02:23 49° S 03:09:14 10° ESE daylight
22 Jul - 04:49:45 10° WSW 04:55:32 28° SSW 05:01:38 10° SE visible
22 Jul - 22:10:22 10° SSW 22:15:22 26° SSE 22:20:29 10° ESE daylight
23 Jul - 00:02:12 10° WSW 00:08:13 48° S 00:14:33 10° E daylight
23 Jul - 01:55:06 10° W 02:01:23 53° S 02:08:06 10° ESE daylight
23 Jul - 03:48:31 10° W 03:54:33 35° SSW 04:00:57 10° SE visible
23 Jul - 05:43:51 10° WSW 05:47:31 15° SSW 05:51:17 10° S visible
23 Jul - 21:10:26 10° SSW 21:14:36 19° SSE 21:18:48 10° ESE daylight
23 Jul - 23:01:32 10° SW 23:07:21 41° SSE 23:13:20 10° E daylight
24 Jul - 00:54:14 10° WSW 01:00:24 54° S 01:06:57 10° ESE daylight
24 Jul - 02:47:28 10° W 02:53:34 41° SSW 03:00:05 10° SE daylight
24 Jul - 04:41:46 10° WSW 04:46:35 20° SSW 04:51:36 10° SSE visible
24 Jul - 20:11:15 10° S 20:13:52 13° SSE 20:16:28 10° SE daylight
24 Jul - 22:01:01 10° SW 22:06:31 33° SSE 22:12:06 10° E daylight
24 Jul - 23:53:25 10° WSW 23:59:29 52° S 00:05:48 10° E daylight
25 Jul - 01:46:31 10° W 01:52:36 47° S 01:59:06 10° ESE daylight
25 Jul - 03:40:16 10° WSW 03:45:39 26° SSW 03:51:20 10° SSE visible
25 Jul - 21:00:40 10° SSW 21:05:44 26° SSE 21:10:47 10° ESE daylight
25 Jul - 22:52:38 10° WSW 22:58:35 48° S 23:04:41 10° E daylight
26 Jul - 00:45:36 10° W 00:51:41 52° S 00:58:04 10° ESE daylight
26 Jul - 02:39:02 10° W 02:44:44 33° SSW 02:50:45 10° SE daylight
26 Jul - 04:34:37 10° SW 04:37:37 13° SSW 04:40:42 10° S visible
26 Jul - 20:00:36 10° SSW 20:04:57 19° SSE 20:09:14 10° ESE daylight
26 Jul - 21:51:55 10° SW 21:57:44 41° SSE 22:03:34 10° E daylight
26 Jul - 23:44:42 10° WSW 23:50:45 53° S 23:57:00 10° ESE daylight
27 Jul - 01:37:59 10° W 01:43:50 39° SSW 01:49:59 10° SE daylight
27 Jul - 03:32:23 10° WSW 03:36:44 18° SSW 03:41:16 10° SSE visible
27 Jul - 19:01:09 10° S 19:04:10 14° SSE 19:07:08 10° SE daylight
27 Jul - 20:51:17 10° SW 20:56:54 34° SSE 21:02:26 10° E daylight
27 Jul - 22:43:50 10° WSW 22:49:52 52° S 22:55:58 10° ESE daylight
28 Jul - 00:37:00 10° W 00:42:56 46° S 00:49:07 10° ESE daylight
28 Jul - 02:30:49 10° WSW 02:35:52 24° SSW 02:41:08 10° SSE daylight
28 Jul - 19:50:48 10° SW 19:56:05 27° SSE 20:01:13 10° ESE daylight
28 Jul - 21:42:58 10° WSW 21:48:59 48° S 21:54:57 10° E daylight
28 Jul - 23:36:03 10° W 23:42:03 51° S 23:48:11 10° ESE daylight
